{"data":{"norad_id":55965,"epoch":"2026-05-25T02:38:20.251968Z","epoch_age_seconds":59325,"freshness":"FRESH","line1":"1 55965U 23037BD  26145.10995662  .00000248  00000+0  28535-4 0  9991","line2":"2 55965  70.0007  71.6379 0002941 270.5011  89.5811 14.98329637175929","mean_motion":14.98329637,"eccentricity":0.0002941,"inclination_deg":70.0007,"raan_deg":71.6379,"arg_perigee_deg":270.5011,"mean_anomaly_deg":89.5811,"bstar":2.8535e-5,"rev_number":17592,"period_min":96.107022409515,"perigee_km":570.01296143283,"apogee_km":574.10106555157,"semimajor_km":6950.1940134922,"source":"CELESTRAK","updated_at":"2026-05-25T13:38:17.921385Z"}}